Weather History for Camarillo, CA

Change the Weather History Date:

Monday, February 4, 2013

  Actual Average Record
Temperature  
Mean Temperature 13 °C 12 °C  
Max Temperature 18 °C 19 °C 31 °C (2001)
Min Temperature 8 °C 6 °C 0 °C (1979)
Degree Days  
Heating Degree Days 9 11  
Month to date heating degree days 21 44  
Since 1 July heating degree days 867 1063  
Cooling Degree Days 0 0  
Month to date cooling degree days 0 0  
Year to date cooling degree days 20 7  
Growing Degree Days 5 (Base 50)    
Moisture  
Dew Point 8 °C    
Average Humidity 78    
Maximum Humidity 96    
Minimum Humidity 60    
Precipitation  
Precipitation 0.00 mm 2.54 mm 1.14 mm (1990)
Month to date precipitation T 0.34  
Year to date precipitation 1.07 3.81  
Since 1 July precipitation 3.78 8.05  
Sea Level Pressure  
Sea Level Pressure 1018 hPa    
Wind  
Wind Speed 4 km/h (WSW)    
Max Wind Speed 21 km/h    
Max Gust Speed 24 km/h    
Visibility 10 kilometers    
Events Fog    
T = Trace of Precipitation, MM = Missing Value Source: NWS Daily Summary

Daily Weather History Graph

Daily Weather History Graph

Search for Another Location

Airport:

Trip Planner

Search our weather history database for the weather conditions in past years. The results will help you decide how hot, cold, wet, or windy it might be!

Date:

Astronomy

Feb. 04, 2013 Rise Set
Actual Time 6:51 AM PST 5:29 PM PST
Civil Twilight 6:25 AM PST 5:56 PM PST
Nautical Twilight 5:55 AM PST 6:25 PM PST
Astronomical Twilight 5:25 AM PST 6:55 PM PST
Moon 1:29 AM PST (2/4) 12:01 PM PST (2/4)
Length of Visible Light 11h 31m
Length of Day
10h 38m
Last Quarter, 36% of the Moon is Illuminated
Feb 4
Last Quarter
Feb 9
New
Feb 17
First Quarter
Feb 25
Full
Mar 4
Last Quarter

Hourly Weather History & Observations

Time (PST) Temp. Dew Point Humidity Pressure Visibility Wind Dir Wind Speed Gust Speed Precip Events Conditions
12:55 AM 7.8 °C 5.6 °C 86% 1018.3 hPa 9.7 km Calm Calm - N/A   Clear
1:16 AM 9.0 °C 7.0 °C 87% 1017.5 hPa 11.3 km Calm Calm - N/A   Scattered Clouds
1:25 AM 9.0 °C 7.0 °C 87% 1017.5 hPa 11.3 km Calm Calm - N/A   Mostly Cloudy
2:55 AM 10.0 °C 8.3 °C 89% 1018.3 hPa 4.8 km NE 7.4 km/h / 2.1 m/s - N/A   Overcast
3:09 AM 11.0 °C 9.0 °C 88% 1017.5 hPa 4.0 km NE 5.6 km/h / 1.5 m/s - N/A   Overcast
3:15 AM 11.0 °C 9.0 °C 88% 1017.5 hPa 2.4 km Calm Calm - N/A   Overcast
3:28 AM 11.0 °C 9.0 °C 88% 1017.5 hPa 1.2 km NE 9.3 km/h / 2.6 m/s - N/A   Overcast
3:55 AM 11.1 °C 10.0 °C 93% 1018.4 hPa 0.4 km ENE 7.4 km/h / 2.1 m/s - N/A Fog Fog
4:55 AM 10.0 °C 8.3 °C 89% 1018.4 hPa 0.4 km Calm Calm - N/A Fog Fog
5:55 AM 9.4 °C 7.8 °C 90% 1018.2 hPa 0.4 km Calm Calm - N/A Fog Fog
6:18 AM 8.0 °C 7.0 °C 93% 1017.5 hPa 3.2 km Calm Calm - N/A   Mostly Cloudy
6:25 AM 8.0 °C 7.0 °C 93% 1017.5 hPa 12.9 km Calm Calm - N/A   Mostly Cloudy
6:32 AM 8.0 °C 7.0 °C 93% 1017.5 hPa 2.8 km Calm Calm - N/A   Mostly Cloudy
6:35 AM 8.0 °C 7.0 °C 93% 1017.5 hPa 1.2 km Calm Calm - N/A   Mist
6:55 AM 8.3 °C 7.2 °C 93% 1018.6 hPa 0.4 km Calm Calm - N/A Fog Fog
7:55 AM 7.8 °C 6.7 °C 93% 1019.2 hPa 0.4 km Calm Calm - N/A Fog Fog
8:07 AM 8.0 °C 7.0 °C 93% 1018.5 hPa 16.1 km Calm Calm - N/A   Clear
8:55 AM 11.1 °C 7.8 °C 80% 1019.7 hPa 16.1 km Calm Calm - N/A   Clear
9:55 AM 13.9 °C 7.8 °C 67% 1020.2 hPa 16.1 km Calm Calm - N/A   Clear
10:55 AM 16.7 °C 9.4 °C 62% 1019.9 hPa 16.1 km SSW 5.6 km/h / 1.5 m/s - N/A   Clear
11:55 AM 18.3 °C 10.6 °C 61% 1019.0 hPa 16.1 km SW 9.3 km/h / 2.6 m/s - N/A   Clear
12:55 PM 17.8 °C 10.0 °C 60% 1018.0 hPa 16.1 km SSW 11.1 km/h / 3.1 m/s - N/A   Clear
1:55 PM 17.8 °C 10.6 °C 63% 1017.0 hPa 16.1 km SW 11.1 km/h / 3.1 m/s - N/A   Clear
2:55 PM 18.3 °C 10.0 °C 58% 1016.8 hPa 16.1 km WSW 14.8 km/h / 4.1 m/s - N/A   Clear
3:55 PM 16.7 °C 10.0 °C 65% 1016.7 hPa 16.1 km WSW 9.3 km/h / 2.6 m/s - N/A   Clear
4:55 PM 15.6 °C 9.4 °C 67% 1016.5 hPa 16.1 km West 7.4 km/h / 2.1 m/s - N/A   Clear
5:55 PM 14.4 °C 9.4 °C 72% 1016.7 hPa 16.1 km Calm Calm - N/A   Clear
6:55 PM 13.3 °C 8.9 °C 75% 1017.3 hPa 14.5 km Calm Calm - N/A   Clear
7:55 PM 11.7 °C 8.3 °C 80% 1018.0 hPa 14.5 km WNW 5.6 km/h / 1.5 m/s - N/A   Clear
8:55 PM 10.6 °C 7.8 °C 83% 1018.5 hPa 14.5 km Calm Calm - N/A   Clear
9:55 PM 11.7 °C 8.9 °C 83% 1018.7 hPa 14.5 km Calm Calm - N/A   Clear
10:55 PM 8.9 °C 6.7 °C 86% 1018.8 hPa 14.5 km Calm Calm - N/A   Clear
11:55 PM 9.4 °C 5.6 °C 77% 1018.9 hPa 14.5 km Calm Calm - N/A   Clear